{"data":{"norad_id":58796,"epoch":"2026-05-24T07:02:59.184384Z","epoch_age_seconds":142897,"freshness":"FRESH","line1":"1 58796U 24012K   26144.29374056  .00000180  00000+0  16055-4 0  9996","line2":"2 58796  43.0008  98.7041 0000988 266.7453  93.3285 15.27576247132797","mean_motion":15.27576247,"eccentricity":9.88e-5,"inclination_deg":43.0008,"raan_deg":98.7041,"arg_perigee_deg":266.7453,"mean_anomaly_deg":93.3285,"bstar":1.6055e-5,"rev_number":13279,"period_min":94.266980311327,"perigee_km":482.38244759821,"apogee_km":483.73822019138,"semimajor_km":6861.1973338948,"source":"CELESTRAK","updated_at":"2026-05-25T13:38:18.750015Z"}}